• In Belarus
  • List of Countries
  • For 7 days
  • Water Temperature
  • Weather Map
  • Weather Widgets
  • user-avatar
    Login

    Hourly Weather Loutraki

    Today, 31 May, Sunday

    Time Temperature Precipitation Wind Pressure Humidity
    00:00 +17°C° 0 mm 2 mps 746 mmHg 72%
    01:00 +17°C° 0 mm 2 mps 745 mmHg 72%
    02:00 +16°C° 0 mm 2 mps 745 mmHg 72%
    03:00 +16°C° 0 mm 2 mps 745 mmHg 72%
    04:00 +16°C° 0 mm 2 mps 745 mmHg 71%
    05:00 +15°C° 0 mm 2 mps 745 mmHg 71%
    06:00 +17°C° 0 mm 2 mps 745 mmHg 65%
    07:00 +18°C° 0 mm 2 mps 745 mmHg 60%
    08:00 +19°C° 0 mm 2 mps 745 mmHg 54%
    09:00 +20°C° 0 mm 2 mps 745 mmHg 51%
    10:00 +21°C° 0 mm 2 mps 745 mmHg 48%
    11:00 +22°C° 0 mm 3 mps 745 mmHg 44%
    12:00 +22°C° 0 mm 3 mps 745 mmHg 44%
    13:00 +24°C° 0 mm 3 mps 745 mmHg 43%
    14:00 +24°C° 0 mm 3 mps 744 mmHg 42%
    15:00 +24°C° 0 mm 3 mps 744 mmHg 45%
    16:00 +22°C° 0 mm 3 mps 744 mmHg 47%
    17:00 +22°C° 0 mm 3 mps 744 mmHg 49%
    18:00 +21°C° 0 mm 3 mps 743 mmHg 55%
    19:00 +20°C° 0 mm 3 mps 743 mmHg 60%
    20:00 +19°C° 0 mm 3 mps 743 mmHg 66%
    21:00 +18°C° 0 mm 3 mps 743 mmHg 68%
    22:00 +18°C° 0 mm 3 mps 743 mmHg 70%
    23:00 +17°C° 0 mm 3 mps 744 mmHg 71%

    Tomorrow, 1 June, Monday

    Time Temperature Precipitation Wind Pressure Humidity
    00:00 +17°C° 0 mm 3 mps 743 mmHg 72%
    01:00 +17°C° 0 mm 3 mps 743 mmHg 72%
    02:00 +16°C° 0 mm 3 mps 742 mmHg 73%
    03:00 +16°C° 0 mm 3 mps 742 mmHg 73%
    04:00 +16°C° 0 mm 3 mps 742 mmHg 73%
    05:00 +16°C° 0 mm 3 mps 742 mmHg 73%
    06:00 +17°C° 0 mm 3 mps 742 mmHg 69%
    07:00 +18°C° 0 mm 3 mps 742 mmHg 65%
    08:00 +19°C° 0 mm 3 mps 742 mmHg 62%
    09:00 +20°C° 0 mm 3 mps 742 mmHg 58%
    10:00 +22°C° 0 mm 3 mps 742 mmHg 54%
    11:00 +24°C° 0 mm 3 mps 743 mmHg 49%
    12:00 +24°C° 0.3 mm 3 mps 742 mmHg 48%
    13:00 +24°C° 0.3 mm 3 mps 742 mmHg 47%
    14:00 +24°C° 0.3 mm 3 mps 742 mmHg 46%
    15:00 +22°C° 0.7 mm 3 mps 741 mmHg 50%
    16:00 +22°C° 0.7 mm 4 mps 741 mmHg 53%
    17:00 +21°C° 0.7 mm 5 mps 741 mmHg 56%
    18:00 +20°C° 0.3 mm 5 mps 741 mmHg 61%
    19:00 +19°C° 0.3 mm 4 mps 741 mmHg 65%
    20:00 +18°C° 0.3 mm 4 mps 741 mmHg 69%
    21:00 +17°C° 0.1 mm 4 mps 741 mmHg 72%
    22:00 +17°C° 0.1 mm 3 mps 741 mmHg 74%
    23:00 +16°C° 0.1 mm 3 mps 742 mmHg 77%

    Day after tomorrow, 2 June, Tuesday

    Time Temperature Precipitation Wind Pressure Humidity
    00:00 +16°C° 0 mm 3 mps 741 mmHg 77%
    01:00 +16°C° 0 mm 2 mps 741 mmHg 77%
    02:00 +16°C° 0 mm 2 mps 741 mmHg 77%
    03:00 +16°C° 0 mm 2 mps 741 mmHg 76%
    04:00 +16°C° 0 mm 2 mps 741 mmHg 75%
    05:00 +16°C° 0 mm 2 mps 741 mmHg 74%
    06:00 +17°C° 0 mm 2 mps 741 mmHg 69%
    07:00 +18°C° 0 mm 3 mps 741 mmHg 64%
    08:00 +19°C° 0 mm 3 mps 742 mmHg 59%
    09:00 +20°C° 0 mm 3 mps 742 mmHg 55%
    10:00 +21°C° 0 mm 3 mps 742 mmHg 51%
    11:00 +22°C° 0 mm 3 mps 742 mmHg 47%
    12:00 +24°C° 0 mm 3 mps 742 mmHg 45%
    13:00 +24°C° 0 mm 2 mps 742 mmHg 43%
    14:00 +25°C° 0 mm 2 mps 741 mmHg 41%
    15:00 +25°C° 0 mm 2 mps 741 mmHg 42%
    16:00 +24°C° 0 mm 2 mps 741 mmHg 43%
    17:00 +24°C° 0 mm 1 mps 741 mmHg 44%
    18:00 +23°C° 0 mm 1 mps 741 mmHg 51%
    19:00 +22°C° 0 mm 1 mps 741 mmHg 58%
    20:00 +20°C° 0 mm 1 mps 741 mmHg 66%
    21:00 +20°C° 0 mm 1 mps 741 mmHg 68%
    22:00 +20°C° 0 mm 1 mps 741 mmHg 70%
    23:00 +19°C° 0 mm 1 mps 742 mmHg 72%

    3 June, Wednesday

    Time Temperature Precipitation Wind Pressure Humidity
    00:00 +19°C° 0 mm 1 mps 741 mmHg 73%
    01:00 +19°C° 0 mm 1 mps 741 mmHg 74%
    02:00 +18°C° 0 mm 1 mps 741 mmHg 75%
    03:00 +17°C° 0 mm 2 mps 741 mmHg 75%
    04:00 +17°C° 0 mm 2 mps 741 mmHg 75%
    05:00 +17°C° 0 mm 2 mps 741 mmHg 76%
    06:00 +18°C° 0 mm 2 mps 741 mmHg 71%
    07:00 +19°C° 0 mm 2 mps 741 mmHg 66%
    08:00 +20°C° 0 mm 2 mps 741 mmHg 62%
    09:00 +21°C° 0 mm 2 mps 742 mmHg 58%
    10:00 +23°C° 0 mm 2 mps 742 mmHg 54%
    11:00 +24°C° 0 mm 2 mps 742 mmHg 50%
    12:00 +24°C° 0 mm 2 mps 742 mmHg 48%
    13:00 +25°C° 0 mm 2 mps 742 mmHg 46%
    14:00 +25°C° 0 mm 2 mps 742 mmHg 44%
    15:00 +25°C° 0 mm 2 mps 742 mmHg 45%
    16:00 +25°C° 0 mm 2 mps 742 mmHg 46%
    17:00 +24°C° 0 mm 2 mps 742 mmHg 47%
    18:00 +23°C° 0 mm 2 mps 742 mmHg 54%
    19:00 +22°C° 0 mm 1 mps 742 mmHg 60%
    20:00 +21°C° 0 mm 1 mps 742 mmHg 66%
    21:00 +20°C° 0 mm 1 mps 743 mmHg 68%
    22:00 +20°C° 0 mm 1 mps 743 mmHg 70%
    23:00 +19°C° 0 mm 1 mps 744 mmHg 71%

    4 June, Thursday

    Time Temperature Precipitation Wind Pressure Humidity
    00:00 +19°C° 0 mm 1 mps 744 mmHg 71%
    01:00 +19°C° 0 mm 1 mps 743 mmHg 72%
    02:00 +18°C° 0 mm 2 mps 743 mmHg 72%
    03:00 +17°C° 0 mm 2 mps 743 mmHg 72%
    04:00 +17°C° 0 mm 2 mps 743 mmHg 72%
    05:00 +17°C° 0 mm 2 mps 743 mmHg 73%
    06:00 +18°C° 0 mm 2 mps 744 mmHg 67%
    07:00 +20°C° 0 mm 2 mps 744 mmHg 62%
    08:00 +21°C° 0 mm 2 mps 744 mmHg 57%
    09:00 +23°C° 0 mm 1 mps 745 mmHg 53%
    10:00 +24°C° 0 mm 1 mps 745 mmHg 49%
    11:00 +25°C° 0 mm 1 mps 745 mmHg 46%
    12:00 +26°C° 0 mm 2 mps 745 mmHg 44%
    13:00 +27°C° 0 mm 2 mps 745 mmHg 43%
    14:00 +27°C° 0 mm 2 mps 745 mmHg 42%
    15:00 +27°C° 0 mm 2 mps 745 mmHg 44%
    16:00 +26°C° 0 mm 2 mps 745 mmHg 46%
    17:00 +26°C° 0 mm 2 mps 745 mmHg 48%
    18:00 +25°C° 0 mm 1 mps 745 mmHg 55%
    19:00 +23°C° 0 mm 1 mps 745 mmHg 61%
    20:00 +22°C° 0 mm 1 mps 745 mmHg 67%
    21:00 +21°C° 0 mm 1 mps 745 mmHg 69%
    22:00 +21°C° 0 mm 1 mps 746 mmHg 70%
    23:00 +20°C° 0 mm 1 mps 746 mmHg 72%

    5 June, Friday

    Time Temperature Precipitation Wind Pressure Humidity
    00:00 +20°C° 0 mm 1 mps 746 mmHg 71%
    01:00 +20°C° 0 mm 1 mps 745 mmHg 71%
    02:00 +20°C° 0 mm 1 mps 745 mmHg 71%
    03:00 +19°C° 0 mm 1 mps 745 mmHg 71%
    04:00 +19°C° 0 mm 1 mps 745 mmHg 70%
    05:00 +19°C° 0 mm 1 mps 745 mmHg 70%
    06:00 +21°C° 0 mm 1 mps 745 mmHg 64%
    07:00 +22°C° 0 mm 1 mps 746 mmHg 58%
    08:00 +24°C° 0 mm 1 mps 746 mmHg 53%
    09:00 +25°C° 0 mm 1 mps 746 mmHg 49%
    10:00 +26°C° 0 mm 2 mps 746 mmHg 45%
    11:00 +27°C° 0 mm 2 mps 746 mmHg 41%
    12:00 +28°C° 0 mm 2 mps 746 mmHg 39%
    13:00 +28°C° 0 mm 2 mps 746 mmHg 38%
    14:00 +29°C° 0 mm 2 mps 746 mmHg 36%
    15:00 +29°C° 0 mm 2 mps 746 mmHg 38%
    16:00 +28°C° 0 mm 2 mps 746 mmHg 40%
    17:00 +28°C° 0 mm 2 mps 746 mmHg 42%
    18:00 +26°C° 0 mm 1 mps 746 mmHg 48%
    19:00 +25°C° 0 mm 1 mps 746 mmHg 53%
    20:00 +23°C° 0 mm 1 mps 746 mmHg 59%
    21:00 +23°C° 0 mm 1 mps 746 mmHg 60%
    22:00 +23°C° 0 mm 1 mps 746 mmHg 60%
    23:00 +23°C° 0 mm 1 mps 746 mmHg 61%
    Show more